Home   Weather   Parnaíba   Past weeks

Flag for Brazil Past Weather in Parnaíba, Piauí, Brazil — Yesterday and Last 2 Weeks

Now
97 °F

Clear.


Feels Like: 97 °F
Forecast: N/A
Wind: 3 mph from West

Location: Teresina Aeroporto

Current Time: Dec 4, 2016 at 7:37:46 pm

Latest Report: Dec 4, 2016 at 7:00 pm


Visibility: 10 mi

Pressure: 29.71 "Hg

Humidity: 30%

Dew Point: 61 °F

Location of ParnaíbaLocation

Past Weather in Parnaíba — Graph

°F

Parnaíba Temperature Yesterday

Maximum temperature yesterday: 102 °F (at 3:00 pm)
Minimum temperature yesterday: 79 °F (at 6:00 am)
Average temperature yesterday: 91 °F

High & Low Weather Summary for the Past Weeks

 TemperatureHumidityPressure
High106 °F (Nov 26, 4:00 pm)94% (Nov 26, 8:00 am)29.92 "Hg (Nov 26, 8:00 am)
Low77 °F (Nov 22, 5:00 am)12% (Nov 26, 4:00 pm)29.68 "Hg (Nov 20, 3:00 pm)
Average90 °F48%29.79 "Hg
* Reported Nov 19 6:00 pm — Dec 4 6:00 pm, Parnaíba, Weather by CustomWeather, © 2016

Note: Actual official high and low records may vary slightly from our data, if they occured in-between our weather recording intervals... More about our weather records

Advertising

Parnaíba Weather History for the Previous 24 Hours

Scroll right to see more
 ConditionsComfort  
Time TempWeatherWind HumidityBarometerVisibility
6:00 pm
Sun, Dec 4
99 °FClear.3 mph27%29.71 "Hg10 mi
5:00 pm100 °FSunny.3 mph25%29.71 "Hg10 mi
4:00 pm100 °FSunny.5 mph25%29.71 "Hg10 mi
3:00 pm100 °FSunny.6 mph27%29.71 "Hg10 mi
2:00 pm99 °FScattered clouds.3 mph31%29.74 "HgN/A
1:00 pm97 °FScattered clouds.6 mph32%29.77 "HgN/A
12:00 pm95 °FPassing clouds.7 mph36%29.80 "HgN/A
11:00 am93 °FPassing clouds.7 mph41%29.83 "HgN/A
10:00 am91 °FScattered clouds.5 mph44%29.86 "HgN/A
9:00 am86 °FPartly sunny.5 mph55%29.86 "HgN/A
8:00 am82 °FSunny.7 mph66%29.86 "Hg10 mi
7:00 am81 °FSunny.7 mph70%29.86 "Hg10 mi
6:00 am79 °FSunny.6 mph79%29.83 "Hg10 mi
5:00 am79 °FClear.5 mph74%29.83 "Hg10 mi
4:00 am81 °FClear.5 mph70%29.80 "Hg10 mi
12:00 am84 °FClear.12 mph58%29.80 "Hg10 mi
11:00 pm
Sat, Dec 3
86 °FClear.13 mph55%29.80 "Hg10 mi
10:00 pm88 °FClear.16 mph52%29.80 "Hg10 mi
9:00 pm90 °FClear.7 mph43%29.77 "Hg10 mi
8:00 pm91 °FClear.6 mph38%29.74 "Hg10 mi
7:00 pm93 °FClear.2 mph34%29.71 "Hg10 mi
Weather by CustomWeather, © 2016

See weather overviewHow to use our weather pages